Port Huron, MI

5:39 AM EDT on May 29, 2017 (GMT -0400)
Saint Clair County International

Weather History for KPHN - October, 2012

Change the Weather History Date:

Monday, October 22, 2012

  Actual Average (KMTC) Record (KMTC)
Temperature  
Mean Temperature 52 °F -  
Max Temperature 71 °F 56 °F 76 °F (1979)
Min Temperature 33 °F 40 °F 28 °F (1969)
Degree Days  
Heating Degree Days 13    
Growing Degree Days 2 (Base 50)    
Moisture  
Dew Point 44 °F    
Average Humidity 81    
Maximum Humidity 100    
Minimum Humidity 46    
Precipitation  
Precipitation 0.00 in - - ()
Sea Level Pressure  
Sea Level Pressure 30.07 in    
Wind  
Wind Speed 2 mph (South)    
Max Wind Speed 10 mph    
Max Gust Speed -    
Visibility 6 miles    
Events Fog , Rain    
Averages and records for this station are not official NWS values.
T = Trace of Precipitation, MM = Missing Value Source: NWS Daily Summary

Daily Weather History Graph

Daily Weather History Graph

Search for Another Location

Airport or City:

Trip Planner

Search our weather history database for the weather conditions in past years. The results will help you decide how hot, cold, wet, or windy it might be!

Date:

Astronomy

Oct. 22, 2012 Rise Set
Actual Time 7:52 AM EDT 6:35 PM EDT
Civil Twilight 7:23 AM EDT 7:04 PM EDT
Nautical Twilight 6:50 AM EDT 7:37 PM EDT
Astronomical Twilight 6:17 AM EDT 8:10 PM EDT
Moon 2:52 PM EDT (10/22) 12:28 AM EDT (10/22)
Length of Visible Light 11h 40m
Length of Day
10h 43m
First Quarter, 56% of the Moon is Illuminated
Oct 22
First Quarter
Oct 29
Full
Nov 6
Last Quarter
Nov 13
New
Nov 20
First Quarter

Hourly Weather History & Observations

Time (EDT) Temp. Dew Point Humidity Pressure Visibility Wind Dir Wind Speed Gust Speed Precip Events Conditions
12:16 AM 37.4 °F 35.6 °F 93% 30.10 in 5.0 mi Calm Calm - N/A   Clear
12:36 AM 35.6 °F 35.6 °F 100% 30.10 in 0.5 mi Calm Calm - N/A Fog Fog
12:56 AM 35.6 °F 35.6 °F 100% 30.10 in 0.5 mi Calm Calm - N/A Fog Fog
1:16 AM 35.6 °F 35.6 °F 100% 30.10 in 1.2 mi Calm Calm - N/A   Mist
1:36 AM 35.6 °F 33.8 °F 93% 30.10 in 0.8 mi Calm Calm - N/A   Mist
1:56 AM 35.6 °F 35.6 °F 100% 30.09 in 2.5 mi Calm Calm - N/A   Clear
2:16 AM 35.6 °F 35.6 °F 100% 30.09 in 10.0 mi Calm Calm - N/A   Clear
2:36 AM 37.4 °F 35.6 °F 93% 30.09 in 7.0 mi Calm Calm - N/A   Clear
2:56 AM 35.6 °F 35.6 °F 100% 30.10 in 10.0 mi Calm Calm - N/A   Clear
3:16 AM 33.8 °F 33.8 °F 100% 30.10 in 2.5 mi Calm Calm - N/A   Clear
3:36 AM 33.8 °F 33.8 °F 100% 30.10 in 0.8 mi Calm Calm - N/A   Mostly Cloudy
3:56 AM 35.6 °F 33.8 °F 93% 30.10 in 0.5 mi Calm Calm - N/A Fog Fog
4:16 AM 33.8 °F 33.8 °F 100% 30.10 in 0.5 mi Calm Calm - N/A Fog Fog
4:36 AM 35.6 °F 35.6 °F 100% 30.10 in 0.2 mi Calm Calm - N/A Fog Fog
4:56 AM 35.6 °F 33.8 °F 93% 30.09 in 0.8 mi Calm Calm - N/A   Overcast
5:16 AM 35.6 °F 33.8 °F 93% 30.09 in 0.5 mi Calm Calm - N/A Fog Fog
5:36 AM 33.8 °F 33.8 °F 100% 30.09 in 0.5 mi Calm Calm - N/A Fog Fog
5:56 AM 33.8 °F 33.8 °F 100% 30.09 in 0.5 mi Calm Calm - N/A Fog Fog
6:16 AM 33.8 °F 33.8 °F 100% 30.10 in 0.2 mi Calm Calm - N/A Fog Fog
6:36 AM 33.8 °F 33.8 °F 100% 30.09 in 0.2 mi Calm Calm - N/A Fog Fog
7:16 AM 33.8 °F 33.8 °F 100% 30.09 in 1.0 mi Calm Calm - N/A   Overcast
7:36 AM 35.6 °F 33.8 °F 93% 30.10 in 0.2 mi Calm Calm - N/A Fog Fog
7:56 AM 33.8 °F 33.8 °F 100% 30.10 in 0.2 mi Calm Calm - N/A Fog Fog
8:16 AM 35.6 °F 35.6 °F 100% 30.10 in 0.2 mi Calm Calm - N/A Fog Fog
8:36 AM 35.6 °F 35.6 °F 100% 30.10 in 1.0 mi Calm Calm - N/A   Overcast
8:56 AM 39.2 °F 39.2 °F 100% 30.10 in 2.0 mi Calm Calm - N/A   Clear
9:16 AM 46.4 °F 44.6 °F 93% 30.10 in 2.0 mi Calm Calm - N/A   Clear
9:36 AM 48.2 °F 48.2 °F 100% 30.10 in 4.0 mi Calm Calm - N/A   Clear
9:56 AM 50.0 °F 50.0 °F 100% 30.10 in 7.0 mi South 4.6 mph - N/A   Clear
10:16 AM 51.8 °F 51.8 °F 100% 30.10 in 10.0 mi South 5.8 mph - N/A   Clear
10:36 AM 53.6 °F 51.8 °F 94% 30.10 in 10.0 mi South 5.8 mph - N/A   Clear
10:56 AM 57.2 °F 50.0 °F 77% 30.10 in 10.0 mi South 6.9 mph - N/A   Clear
11:16 AM 59.0 °F 48.2 °F 67% 30.10 in 10.0 mi SSW 6.9 mph - N/A   Clear
11:36 AM 60.8 °F 50.0 °F 68% 30.10 in 10.0 mi SSW 9.2 mph - N/A   Clear
11:56 AM 60.8 °F 50.0 °F 68% 30.09 in 10.0 mi SSW 9.2 mph - N/A   Clear
12:16 PM 62.6 °F 50.0 °F 63% 30.09 in 10.0 mi SSW 8.1 mph - N/A   Clear
12:36 PM 64.4 °F 50.0 °F 59% 30.08 in 10.0 mi SSW 8.1 mph - N/A   Clear
12:56 PM 64.4 °F 50.0 °F 59% 30.07 in 10.0 mi South 8.1 mph - N/A   Clear
1:16 PM 66.2 °F 50.0 °F 56% 30.06 in 10.0 mi South 8.1 mph - N/A   Clear
1:56 PM 68.0 °F 50.0 °F 52% 30.05 in 10.0 mi South 6.9 mph - N/A   Clear
2:16 PM 69.8 °F 50.0 °F 49% 30.04 in 10.0 mi SSW 9.2 mph - N/A   Clear
2:36 PM 71.6 °F 50.0 °F 46% 30.03 in 10.0 mi South 10.4 mph - N/A   Clear
2:56 PM 69.8 °F 50.0 °F 49% 30.03 in 10.0 mi SSW 8.1 mph - N/A   Clear
3:16 PM 69.8 °F 50.0 °F 49% 30.03 in 10.0 mi SSW 8.1 mph - N/A   Clear
3:36 PM 69.8 °F 50.0 °F 49% 30.03 in 10.0 mi SSW 9.2 mph - N/A   Scattered Clouds
3:56 PM 69.8 °F 50.0 °F 49% 30.03 in 10.0 mi South 8.1 mph - N/A   Mostly Cloudy
4:36 PM 68.0 °F 50.0 °F 52% 30.03 in 10.0 mi SSW 8.1 mph - N/A   Overcast
4:56 PM 68.0 °F 50.0 °F 52% 30.02 in 10.0 mi SSW 6.9 mph - N/A   Mostly Cloudy
5:16 PM 66.2 °F 50.0 °F 56% 30.02 in 10.0 mi South 5.8 mph - N/A   Mostly Cloudy
5:36 PM 66.2 °F 50.0 °F 56% 30.02 in 10.0 mi South 6.9 mph - N/A   Overcast
6:16 PM 64.4 °F 51.8 °F 64% 30.01 in 10.0 mi SSE 5.8 mph - N/A   Overcast
6:36 PM 62.6 °F 51.8 °F 68% 30.01 in 10.0 mi SSE 4.6 mph - N/A   Overcast
7:16 PM 60.8 °F 51.8 °F 72% 30.00 in 10.0 mi SE 5.8 mph - N/A   Scattered Clouds
7:36 PM 60.8 °F 51.8 °F 72% 30.01 in 10.0 mi SSE 3.5 mph - N/A   Scattered Clouds
8:16 PM 60.8 °F 51.8 °F 72% 29.99 in 10.0 mi SE 4.6 mph - N/A   Overcast
8:36 PM 60.8 °F 50.0 °F 68% 29.99 in 10.0 mi SSE 4.6 mph - N/A   Mostly Cloudy
9:16 PM 59.0 °F 50.0 °F 72% 30.00 in 10.0 mi Calm Calm - N/A   Scattered Clouds
9:56 PM 57.2 °F 50.0 °F 77% 30.01 in 10.0 mi Calm Calm - N/A   Light Drizzle
10:16 PM 57.2 °F 51.8 °F 82% 30.00 in 10.0 mi ESE 3.5 mph - N/A Rain Light Rain
10:36 PM 55.4 °F 51.8 °F 88% 29.99 in 7.0 mi Calm Calm - N/A Rain Light Rain
11:36 PM 55.4 °F 51.8 °F 88% 29.99 in 7.0 mi Calm Calm - N/A Rain Light Rain